User: anonymous   Login
Location: ??????
(42.0089°N, 44.3281°E)
Time: 00:06:08
(UTC+00:00)
Language:

Cosmos 2251 Rocket - Orbit

View from above orbital plane
View from above orbital plane
View from above satellite
View from above satellite

Ground track
Ground track

The orbit data is extracted from the following two-line orbital elements,

1 22676U 93036B   22276.36722916  .00000378  00000-0  14389-3 0  9995
2 22676  74.0411 244.0223 0018314 161.6590 198.5227 14.34143730532288
Epoch (UTC): 03 October 2022 08:48:48
Eccentricity: 0.0018314
inclination: 74.0411°
perigee height: 765 km
apogee height: 791 km
right ascension of ascending node: 244.0223°
argument of perigee: 161.6590°
revolutions per day: 14.34143730
mean anomaly at epoch: 198.5227°
orbit number at epoch: 53228

The dashed part of the orbit path shows where the satellite is in the earth's shadow,  

DLR